GFSSE_con_sbcape_000.txt.gz
CAPE
1237 1914 3444 3339 3443 3507 3524 3528 3444 3337 2858 2713 2503 2395 2184 2250 2260 2651 2796 2619 2507 2116 1816 1405 1275 1090 1232 1399 1284 1572 1639 1999 1824 1572 1682 1654 1529 1532 1751 1291 1527 626 1045
1722 2179 3562 3513 3345 3348 3439 3566 3733 3658 3139 2995 2859 2469 2288 2628 2036 2215 2597 2493 1856 1776 1633 1505 1399 1386 1258 1502 1563 1517 2022 2344 2417 1851 1771 1556 1335 1124 990 989 1794 914 1041
1926 2335 2809 3517 3470 3706 3708 3568 3674 3619 3135 2878 2884 2631 2391 2511 2212 1968 2361 2169 1706 1500 1205 1298 1175 1359 1239 1329 1592 1402 1954 2584 2566 2056 1913 894 952 1053 1194 1342 1272 1156 1059
2445 2510 2672 3643 3837 4015 4011 4120 4074 3665 3042 2693 2591 2650 2612 2291 1854 2210 2100 1716 1725 1556 1368 1004 1115 1197 1220 1390 1923 1762 1767 2074 2212 1800 1386 514 421 1340 1476 1465 1428 1217 1139
2736 2538 3047 3966 4101 3892 4071 4070 4009 3770 3280 2832 2665 2757 2580 2254 2016 2092 2032 1463 1520 1630 1374 1367 1307 1200 1308 1437 2026 1805 1636 2110 1847 1180 1115 907 487 1632 1604 1489 1237 1198 1290
1973 2759 3563 3900 3997 3728 3944 3853 3819 3668 3403 3057 2911 2953 2603 2489 2173 1854 1624 1694 1384 1613 1558 1293 1170 1348 1399 1615 1880 2260 1813 2120 1605 1389 760 1221 907 2200 1542 1206 1023 1019 1232
2707 2908 2824 3947 4265 4078 3859 3931 3907 3448 3415 3481 3204 2962 2758 2599 2395 2196 1994 1931 1815 1641 1461 1565 1002 1483 1217 1673 1910 2306 2169 1901 1264 934 928 1555 1413 2317 1348 1312 1302 1161 879
2970 2985 2777 4121 4436 4218 3594 3937 4132 4009 3883 3843 3429 3383 2921 2864 2882 2883 1926 1868 1876 1597 1712 1659 1557 1474 1430 1784 1857 2055 2224 1689 1143 1159 1144 1523 1834 2179 1490 1559 1338 1188 505
3085 3408 3122 3111 3335 3813 3752 3856 4236 4260 4161 3942 3805 3709 3333 2852 2718 2492 2461 2135 1885 1851 1767 1737 1677 1581 1621 1637 2005 2155 1962 1538 1115 1172 1237 1286 2167 2268 1600 1435 1710 1335 1162
3091 3699 3541 3411 3431 3303 3493 3984 3988 4158 3972 3642 3308 2827 2636 2664 2679 2397 2972 2894 2084 1832 1688 1523 1930 1887 2150 1992 1785 1710 1569 1044 728 894 1149 1018 2333 2328 1201 1550 1444 1602 1378
3277 3615 3568 3461 3311 3688 3490 3317 3728 3284 2820 2478 2437 2686 3158 2528 2414 2363 2413 2763 1921 1871 1688 1592 1975 1826 1958 1514 1803 1825 1167 369 225 999 841 1946 2264 2211 1545 2033 1816 1806 1572
2690 3343 2933 3253 3221 3278 3114 2879 2589 2596 2373 2516 2598 3052 2787 2294 2959 2407 2153 2117 1690 1669 1706 1890 2015 1905 1838 1350 1257 1146 991 483 658 1534 986 1778 1913 2202 2198 2096 1876 1759 1653
2974 2911 3493 3097 3016 2785 2502 2393 2885 2259 2093 1909 1949 2124 2598 2294 2419 2073 2733 2057 1907 1979 1566 2108 2041 1636 1288 1290 1329 816 696 1242 1360 1155 985 2033 2143 2158 2025 2146 1906 1753 1659
2782 2692 3230 3366 3268 2825 2696 1329 2093 2443 2209 1935 1619 2166 1651 1495 1679 2401 2670 2577 2569 2265 2286 2288 2137 1836 1585 1167 773 1374 1199 1565 1202 1181 1215 1886 2208 2118 2284 1845 1798 1801 1735
2185 2680 2964 3481 3847 3094 1367 1214 1464 2491 2028 2089 2015 1400 1017 972 1451 2048 1750 1942 2172 2355 2904 1880 1904 1516 1678 1295 1653 953 1299 1272 1007 1453 988 1460 2341 2287 2217 2007 1581 1493 1707
2120 2531 3153 3286 3786 3473 3355 2541 2537 2518 1892 1225 1864 1763 1241 1428 2278 2078 1668 1580 1780 2342 1775 2228 1737 1511 1372 1681 1530 1228 1092 1293 1222 1315 996 1296 1581 2411 2605 2301 1936 1624 1540
2549 2701 3019 3355 3426 3848 3944 3689 3316 2806 2313 1534 1820 2174 1359 1527 1743 1610 1371 1244 1927 2572 2004 2065 1867 1900 1602 1653 1823 1482 1355 1189 1728 618 1444 1969 1216 2144 2693 2593 2290 1971 1587
2941 3213 3409 2699 3269 3660 3819 3542 2982 2325 2378 1963 1546 1510 1803 1836 1665 2025 1302 1150 1480 2161 2095 1607 1405 1365 1603 1668 1717 1449 1375 1094 1238 1319 1137 973 871 985 2106 2606 2350 2037 1981
3775 3732 3685 3477 3550 3674 3736 2932 2699 2503 2130 2081 1678 1347 1851 1668 1615 1568 1350 1149 1505 1699 2152 2154 970 1258 1234 1312 1454 1527 1245 1315 1658 1171 1516 984 862 1220 1227 1835 1815 1615 1742
3258 3734 3777 3652 3857 3807 3345 3251 3114 1981 1738 1741 1499 1686 1421 1414 1294 1397 1394 1287 1272 1012 1823 2074 1291 993 900 801 1227 1163 918 1468 2082 1846 1144 882 1007 1384 1172 778 722 926 1731
3176 3681 3847 3667 3971 3759 3857 3125 2109 1531 1585 1524 1294 1711 1564 1138 1058 1110 1041 1196 1447 1362 1388 1626 1515 1064 1129 937 847 772 587 1163 1343 1691 1228 1002 742 1146 1161 885 692 574 413
3364 3529 3599 3399 3847 3340 3180 2621 2437 2375 2098 1508 1921 1495 876 811 895 874 951 1265 1146 790 1243 1518 1214 1058 1375 967 610 622 308 905 1143 1300 1283 1275 651 779 949 870 333 261 371
3317 3503 3542 3356 3068 3030 2350 2556 2189 2080 1260 614 537 1218 1128 882 773 817 878 1079 1057 1486 939 1244 1043 659 1060 1104 901 322 275 722 962 1352 1267 965 704 626 678 672 606 506 352
3199 3075 3648 3702 3633 2859 2005 1802 1955 1481 562 654 682 1209 665 674 1000 805 816 883 1264 1346 664 1366 698 248 421 820 432 660 355 1028 473 553 817 1252 1082 725 484 558 586 787 647
3193 3231 3461 3817 3615 2757 2017 1772 1755 655 985 1183 746 852 1229 1112 1164 747 712 798 1227 1306 1106 851 1060 492 423 323 223 373 428 526 909 396 604 783 706 864 579 492 633 631 797
2321 2814 3198 3601 3269 1821 1443 1629 1543 1311 1057 1262 1224 1015 1178 1316 1245 909 654 899 1007 1059 863 618 838 711 552 320 230 168 198 229 640 421 313 440 512 596 664 618 644 458 545

GFSSE_con_sbcape_006.txt.gz
CAPE
2145 2934 3674 3699 3416 3252 3080 3101 2969 2941 2973 3034 3372 3438 3167 2766 2857 2886 2914 2342 1907 1694 1255 1421 1551 1516 1513 1281 1788 1640 1437 1506 1711 1433 1375 1394 1292 1225 1259 852 810 382 632
2187 2805 3576 3753 3786 3579 3620 3452 3116 3194 2880 3024 3109 3197 3144 3170 2875 2763 2666 2431 1899 1647 1552 1481 1626 1639 1694 1536 1670 1629 1800 2106 2193 1583 1388 1376 1478 1308 1025 831 679 740 747
2185 2722 3338 3622 3821 3766 3850 3686 3408 3293 2880 2765 3068 3007 2868 3084 2855 2244 2311 2238 2059 1886 1744 1686 1543 1734 1891 1336 1771 1774 1837 1975 2407 2195 1585 843 677 999 1085 915 837 903 724
2248 2551 2916 3541 3762 3985 3995 3859 3578 3267 2984 2941 2838 2700 2865 2780 2566 2353 2084 1884 1666 1664 1530 1580 1546 1499 1823 1500 1550 2052 1809 1905 1814 1641 752 775 816 1284 1120 1005 1023 846 829
2239 2585 2906 3779 3768 3952 4171 3959 3768 3405 3325 3323 2957 2567 2346 2499 2569 2326 2205 2114 1969 1525 1416 1379 1429 1515 1622 1723 1387 2169 2022 1928 1818 1038 424 528 782 1370 1249 1129 1032 963 833
2590 2721 3782 3909 3991 4253 4252 4075 3773 3381 3262 3442 3197 2524 2298 2186 2514 2423 2389 1948 2122 1618 1593 1564 1422 1341 1586 1751 1612 2161 2098 1505 1156 810 594 790 962 1551 1294 1185 1151 443 815
2543 2943 3459 4007 4176 4362 4332 4111 3825 3352 3135 3375 3259 2566 2398 2337 2629 2353 1794 2082 1975 1864 1710 1763 1449 1567 1519 1594 1759 1874 1740 806 689 543 553 690 1064 1898 1200 1146 1233 806 748
2474 2789 3124 3895 4032 4114 4268 4166 3880 3549 3232 3298 3310 2958 2704 2671 2782 2335 2389 2167 2207 1950 2041 1772 1505 1543 1606 1898 1679 1925 1600 996 916 744 616 581 1672 2123 1369 1260 1256 876 753
2694 2800 2996 3179 3092 3630 4098 4029 3894 3737 3526 3447 3559 3557 3200 2932 2653 2476 2607 2457 2213 2007 2104 1877 1633 1781 1555 1682 1946 1915 1720 953 801 752 858 554 1750 2086 1485 1477 1167 922 341
2525 2885 3142 3152 2844 3371 3303 4055 3905 3814 3574 3041 3175 3185 3136 3005 2564 2675 2844 2811 2235 2160 1990 1899 1883 2040 2337 1660 1652 1757 1634 1235 487 650 766 639 1779 2337 1565 1495 1019 1228 951
2250 2521 2835 2925 2861 2928 3202 3645 4153 3600 3171 3133 3159 3311 3241 2073 1984 2258 2759 2470 2275 1991 1952 1828 1688 2080 1876 1784 1649 1825 1681 858 418 153 679 1199 1977 2596 1802 1816 1772 1211 1063
2129 2198 2548 2492 2436 2509 3184 2917 3270 2988 2721 2569 2486 2371 2259 1954 1933 2117 2120 2259 2227 2056 2071 2053 2241 1853 1633 1344 1143 1440 1229 806 316 594 567 1392 1991 2556 2231 2293 1789 1122 679
2294 2343 2309 2477 2422 2563 2718 2225 2078 1452 1469 1377 1317 1705 1712 1762 1778 2016 1440 1747 1442 1764 1363 1888 2158 1866 1493 1193 1068 851 620 573 407 610 746 1380 1736 2290 1733 2063 1678 1512 1032
2259 2456 2382 2333 2109 2124 1779 1631 1533 1274 1053 1056 1031 903 1380 1378 1120 1237 1300 1352 1272 1269 1179 1166 1459 1407 1108 1172 928 708 567 475 416 281 730 1220 1741 2098 1843 1691 1601 1348 1354
2103 2277 2147 1862 1551 1390 1073 863 735 1158 1111 885 646 515 832 888 920 1099 1160 1032 1048 1103 1020 985 964 916 1004 1065 991 694 565 532 424 296 238 828 1720 2200 2163 1755 1370 1388 1366
1961 2179 1919 1638 1414 704 293 18 0 66 830 920 833 552 650 433 400 403 767 690 763 632 681 866 662 680 568 470 706 711 685 408 495 381 345 483 1323 2168 2215 2297 1740 1362 1256
1929 2209 2047 1626 1487 465 163 0 0 0 239 921 485 788 439 195 128 273 566 539 445 472 490 624 588 604 568 628 715 639 551 516 385 494 417 244 311 1821 2322 2553 2285 2175 1927
2062 2323 2154 2145 1644 673 380 227 0 81 859 610 307 9 399 227 374 578 422 487 305 316 484 431 402 554 497 597 663 555 529 242 412 549 311 372 361 598 2017 2252 2497 2296 2301
1987 2023 2275 2241 1801 1293 1451 979 822 1004 871 577 531 339 264 436 333 316 482 372 257 358 368 442 331 398 396 395 382 433 452 444 615 795 552 473 433 310 324 1886 2282 2224 2144
1662 1922 2020 2073 2003 1948 1940 1397 1167 668 624 768 677 646 584 541 500 222 248 322 205 223 317 360 304 330 244 329 530 628 538 314 347 432 620 561 487 558 581 704 1670 1764 2213
1808 1821 1774 1874 1891 1568 1297 1119 733 595 353 241 231 361 472 307 664 402 193 215 170 223 190 384 241 92 179 278 195 222 296 356 449 293 248 506 438 381 562 547 491 885 1213
1788 1936 1699 1384 1349 1203 1235 693 364 238 95 76 45 172 320 235 192 148 119 104 89 253 108 254 304 286 179 194 118 52 108 97 198 258 395 274 336 535 554 357 420 543 612
1 493 1213 1331 1154 1121 852 440 228 69 0 38 52 56 72 145 94 89 92 31 16 175 193 219 264 216 216 245 126 38 61 50 122 187 423 258 319 157 358 391 445 310 331
2 543 1164 991 1326 909 569 318 248 163 79 11 15 6 9 32 70 84 79 61 45 41 107 142 210 152 107 203 183 262 103 76 50 1 50 242 225 193 174 245 330 250 238
2 402 705 1205 1035 666 508 132 85 2 0 0 0 0 0 0 3 35 99 60 76 48 36 116 160 77 76 67 43 94 89 116 38 39 25 16 195 272 147 198 186 217 219
1302 381 667 1027 832 371 115 18 43 0 0 0 0 0 0 0 0 0 103 54 99 101 125 137 93 0 22 8 0 1 46 78 43 50 48 41 39 23 140 105 111 142 194

GFSSE_con_sbcape_009.txt.gz
CAPE
1881 2723 2904 3030 2808 3055 2863 3006 2971 3054 2977 3193 3156 3061 2970 2930 2767 2691 2430 2096 1788 1596 1592 1585 1563 1413 1282 1284 1583 1271 1392 1434 1334 1090 931 981 1059 917 1055 780 511 259 336
1979 2710 3578 3433 3322 2889 3182 3313 3175 3110 3118 3209 2979 2934 2885 3056 2753 2290 2569 2098 1668 1438 1583 1631 1638 1523 1267 1438 1640 1337 1335 1778 1740 1029 791 1003 1010 807 718 600 296 375 530
2322 2710 3042 3370 3570 3374 3186 3295 3306 3182 2950 3090 3394 3237 3143 3247 2741 2472 2349 2061 1839 1721 1686 1667 1605 1771 1405 1545 1583 1482 1593 1712 1971 1463 1249 507 635 805 749 669 509 368 399
2210 2627 2838 3520 3631 3581 3519 3439 3386 3246 3018 3140 3124 3005 3168 3153 3059 2591 2552 2285 2108 1876 1873 1738 1603 1812 1353 1528 1814 1603 1723 1502 1331 1476 657 583 680 992 749 761 767 676 452
2215 2487 2739 3790 3841 3697 3767 3566 3489 3406 3383 3309 2947 2587 2621 2770 2540 2441 2219 2021 1912 1873 1635 1739 1605 1623 1395 1523 2045 1701 1747 1602 1600 891 376 423 794 974 917 955 645 761 580
2279 2413 3074 3846 4059 4101 3949 3760 3519 3516 3514 3474 3092 2466 2453 2715 2628 2515 2496 2331 2102 1788 1698 1610 1422 1587 1564 1374 2035 1932 1992 1609 1114 394 387 981 712 1369 1022 977 839 715 530
2359 2430 3079 3759 3806 3959 4166 3925 3686 3440 3591 3336 2909 2464 2327 2620 2761 2612 2178 2412 2114 1954 1943 1677 1537 1503 1563 1413 1720 2011 1861 1202 598 499 418 730 755 1670 1123 1082 459 550 674
2462 3039 3178 3792 3968 4176 4179 4055 3863 3446 3280 3061 2881 2553 2521 2705 2847 2330 2203 2194 2328 2103 1975 1730 1720 1661 1731 1604 1502 1929 1635 929 872 610 556 732 1306 1803 1153 1145 718 481 846
2557 2715 2908 3177 3574 4112 4389 4260 3997 3542 3379 3509 3285 3284 2997 2817 2588 2233 2642 2374 2323 2146 2180 1770 1686 1636 1634 1901 1560 1557 1624 871 578 518 602 668 1908 1803 1289 1419 959 564 948
2469 2658 2816 2914 2734 3273 3770 4327 4074 3732 3494 2875 2905 3021 2958 2935 2553 2648 3041 2829 2309 2137 2169 1934 1810 1817 1851 1640 1952 1620 1357 878 427 528 562 495 1902 1813 1586 1422 1172 443 541
2224 2776 2886 2774 2611 2795 3064 3494 3804 3580 3123 2815 2933 3042 3219 2445 2171 2381 2551 2504 2342 2139 2041 2007 1800 1588 1595 1611 1544 1814 1507 557 374 139 445 1004 1882 1962 1620 1536 1592 1019 486
2262 2511 2742 2749 2765 2604 3174 2998 3178 2709 2758 2676 2743 2722 2605 1873 1718 2168 2555 2349 2328 2206 2153 1959 1965 1843 1694 1051 1024 1370 907 680 207 91 486 1362 1769 1838 2080 2175 1625 1217 1024
2042 2205 2494 2281 2012 2420 2876 2632 2460 1999 2121 2025 1911 1836 1872 1703 1966 2274 1770 1781 1696 2091 1598 2125 2124 1880 1275 851 783 772 762 562 229 666 902 1542 1873 2025 1978 2094 1523 1063 764
2122 2191 2203 2254 1989 2264 2145 1842 1686 1324 1287 1216 1207 1330 1584 1584 1481 1573 1263 1310 1173 1233 1270 1300 1472 1512 1332 1144 913 604 563 398 191 435 655 1370 1864 2333 2310 2024 1745 1438 1152
2202 2240 2202 2219 1999 1903 1808 1444 1435 1292 1103 919 854 782 1041 1178 1049 1048 1007 979 993 1029 1003 996 996 939 946 831 948 471 478 387 337 270 380 1147 1868 1868 2080 1979 1653 1474 1470
2023 2173 2106 2002 1802 1416 1218 1011 905 980 934 680 541 423 455 647 597 589 640 702 755 743 752 768 688 631 548 664 836 643 346 412 391 225 180 205 1665 1637 2181 2250 1841 1543 1355
1708 1853 1848 1700 1366 952 600 347 145 95 255 637 682 509 349 295 252 310 357 432 449 422 467 565 489 419 428 314 504 658 524 344 385 355 213 151 532 1508 2072 1999 2388 2038 1925
1547 1899 1735 1823 1369 694 315 76 0 0 0 210 446 255 406 180 50 68 131 307 289 251 303 273 357 388 302 277 412 521 562 339 387 356 310 271 234 270 905 1835 2055 2214 1995
1544 1990 1843 1636 1325 761 355 221 82 0 62 310 287 71 0 190 157 169 179 241 303 165 195 263 186 293 288 289 280 321 312 189 258 502 369 255 225 260 264 997 1576 2062 1857
1574 1988 1937 1711 1375 1033 829 578 605 539 468 295 213 204 204 132 304 167 262 316 168 123 169 216 229 203 155 200 378 674 325 240 302 425 418 377 289 312 231 330 546 1065 1795
895 1290 1159 1671 1667 1291 884 723 594 649 314 233 262 247 195 193 297 154 137 158 76 128 144 129 96 100 134 106 74 116 94 199 309 254 320 480 454 432 276 301 367 993 1259
108 886 4 0 0 944 694 506 344 248 125 23 19 45 89 168 204 174 103 109 121 99 6 109 116 69 8 75 74 11 125 101 111 144 230 287 370 363 359 455 379 349 380
120 3 0 0 0 517 656 299 103 91 42 15 0 6 13 30 60 81 67 19 44 75 25 34 118 88 91 69 47 14 26 33 19 65 234 276 291 257 350 353 257 211 298
10 0 0 0 0 397 351 270 225 139 114 6 0 0 0 0 2 21 28 47 27 21 58 69 91 64 1 80 69 56 33 0 0 39 4 209 266 228 172 184 268 242 141
35 5 0 0 2 382 474 288 143 76 0 0 0 0 0 0 0 0 45 52 62 20 35 32 98 37 0 0 35 63 37 51 1 0 0 0 99 170 148 108 138 140 116
60 7 104 433 566 360 295 133 48 0 0 0 0 0 0 0 0 0 14 47 70 57 14 7 37 32 0 0 5 14 35 73 41 15 18 0 0 3 109 132 140 87 101

GFSSE_con_sbcape_012.txt.gz
CAPE
1573 1705 3094 3103 2639 2504 2363 2825 3071 3226 3316 3275 3183 3239 3213 3147 2803 2528 2420 2131 1841 1946 2018 1729 1309 1403 1309 1545 1344 1224 1465 1408 1173 1420 1393 1014 1145 920 923 499 101 140 696
1800 2010 3088 3277 3159 2662 2583 2799 3144 3254 3084 3129 3173 3114 3101 2977 2448 2258 2338 1978 1857 1696 1657 1624 1517 1368 1475 1455 1465 1384 1643 1598 1659 1080 640 1112 1037 870 646 310 104 358 122
2111 2375 2766 3303 3403 3092 3017 3045 2968 3041 2771 2743 3057 3037 3015 2996 2419 2233 2132 1914 1687 1680 1710 1723 1617 1403 1575 1531 1446 1276 1468 1856 1864 1451 1061 895 805 828 517 550 439 610 263
2222 2528 2566 3327 3457 3440 3382 3308 3135 3009 2666 2714 2698 2739 2729 3081 2986 2475 2226 2021 1932 1867 1895 1700 1872 1638 1512 1654 1793 1569 1527 1620 1328 1282 827 812 564 931 703 579 450 355 510
2209 2451 2642 3590 3634 3159 3377 3461 3397 3241 3106 2914 2912 2761 2978 2862 2784 2571 2390 2405 2194 2155 1977 1730 1808 1526 1432 1578 1744 1633 1933 1767 1504 973 674 639 994 815 938 769 681 372 255
2265 2331 2686 3760 3491 3216 3370 3541 3553 3524 3509 3217 2847 2788 2941 2779 2585 2438 2321 2257 2005 2005 1852 1782 1675 1656 1386 1647 1705 1932 2102 1511 1371 695 674 1123 1134 1144 1029 724 819 536 461
2203 2183 2757 3480 3892 3792 3651 3199 3287 3513 3441 3202 2817 2582 2754 2823 2759 2681 2418 2262 2178 2029 1785 1742 1640 1419 1485 1619 1715 1889 2063 1225 608 718 897 1109 1097 1431 1130 1000 672 677 204
2217 2336 2742 3654 4061 4128 3475 3187 2928 2854 3017 2904 2730 2601 2716 3099 2904 2645 2230 2440 2256 1980 2011 1503 1910 1569 1673 1344 1790 1919 2095 1234 889 675 807 936 1257 1408 1176 987 402 847 641
2288 2622 2881 3062 3413 3642 3820 3770 3318 3346 3188 3234 3046 3191 2947 2834 2803 2237 2595 2375 2538 2330 2117 1913 1839 1899 1753 1712 1773 1736 1385 1196 849 821 820 1039 1808 1661 1221 1148 455 838 915
2194 2181 2615 2981 2955 3295 3672 3808 3609 3485 2996 2848 2865 2833 2805 2818 2535 2164 3102 3017 2485 2242 2327 2090 1921 1927 1947 1998 1784 1525 951 1261 709 811 825 1118 2117 1412 1368 1458 874 888 910
2009 2125 2079 2507 2388 2678 3017 3399 3537 3289 2859 2838 2808 2908 2817 2281 2237 2544 2689 2636 2344 2278 2170 2049 1915 2020 2216 1865 1929 1697 1089 788 621 831 762 1059 2042 1678 1600 1580 1472 757 936
1964 2370 2508 2397 2310 2463 2873 3115 2893 2522 2373 2451 2535 2466 2461 2140 1793 2383 2652 2469 2320 2200 2251 2095 2025 1859 1724 1413 1619 1798 1281 838 468 436 981 1267 1903 1872 1602 2075 1842 853 533
1909 2046 2175 2308 2292 2328 2856 2523 2661 2292 2295 2191 2258 2142 2121 1775 1813 2353 2178 2151 1855 2254 1905 2519 2359 1880 1460 1216 1142 949 1116 923 524 551 814 1440 1809 2106 1777 2006 1759 1556 909
1906 1977 2102 1964 1808 2176 2225 1894 1948 1560 1357 1573 1265 1454 1644 1357 1398 1824 1648 1530 1414 1580 1470 1722 1829 1676 1413 1318 995 882 931 793 514 783 1096 1593 1655 2100 2252 1915 1661 1374 1284
1840 1896 1998 1949 1812 1692 1673 1521 1424 1210 1163 860 793 736 998 1191 1264 1212 1245 1172 1112 1089 1194 1233 1257 1402 1373 1213 1225 887 821 699 503 676 875 1753 1869 1885 2407 1779 1801 1538 1220
1810 1905 1900 2031 1624 1360 1383 1378 1321 1030 854 608 555 623 753 787 790 837 690 751 810 955 954 1033 1079 984 1005 1016 1013 947 817 772 538 517 589 734 1509 1768 1736 2040 1885 1667 1475
1861 1925 1904 1919 1548 1385 1170 950 732 611 646 659 541 442 386 447 409 444 526 619 695 676 722 733 798 663 695 595 743 736 734 681 698 593 521 487 814 1449 1950 1994 2124 2168 2035
1458 1696 1799 2016 1467 1081 770 537 309 113 85 235 439 489 511 367 288 272 368 445 514 486 509 492 676 612 545 569 551 685 980 607 689 583 548 434 444 577 1228 1531 1894 1718 2010
1291 1470 1582 1642 1274 838 419 181 95 8 0 0 100 265 219 381 283 192 200 247 344 339 361 403 326 454 461 489 473 353 555 613 599 700 607 581 478 479 466 905 1183 1116 1626
487 195 161 109 78 472 302 222 193 164 114 69 156 289 239 94 217 298 327 260 314 371 296 242 320 215 363 383 494 680 409 498 297 647 712 574 521 486 459 511 897 1083 1495
139 163 129 136 0 0 488 460 574 597 368 273 243 247 266 256 173 285 220 229 254 376 394 235 256 333 313 218 280 33 126 252 500 605 775 665 662 515 519 674 701 1037 825
144 61 17 101 2 0 103 453 314 209 123 80 16 26 36 100 213 368 252 195 121 241 146 217 216 144 132 182 138 79 212 313 333 420 498 639 769 811 642 539 644 814 1071
5 0 4 53 0 0 84 320 127 52 31 1 0 4 8 6 42 102 174 146 108 152 154 171 273 228 245 90 37 60 96 193 114 192 309 489 581 602 605 739 747 763 792
27 0 0 0 0 0 204 255 166 79 38 0 0 0 0 0 0 31 50 87 63 39 131 147 233 260 161 253 107 61 38 27 163 305 94 325 536 509 477 681 774 701 668
24 0 0 0 0 2 339 180 79 0 0 0 0 0 0 0 0 0 18 8 21 29 138 168 198 204 173 182 176 165 130 112 25 32 63 122 212 440 468 413 493 692 646
56 4 23 8 131 452 329 53 0 0 0 0 0 0 0 0 0 0 2 20 43 61 99 146 238 202 172 172 102 173 186 310 269 164 114 37 44 67 109 370 352 358 514

GFSSE_con_sbcape_015.txt.gz
CAPE
1168 1826 3015 2812 2850 2789 2587 2966 3368 3511 3493 3506 3490 3179 3192 2952 2506 2396 2334 2038 2051 1975 1868 1634 1186 1313 1391 1554 1216 1190 1477 1359 1164 1230 1329 1123 1030 864 763 297 187 260 392
1236 1807 2967 3001 2893 2796 2927 3083 3273 3488 3484 3541 3510 3505 3286 3160 2548 2426 2312 2064 2132 2050 1889 1669 1510 1485 1366 1552 1177 1487 1584 1593 1772 1259 1131 1129 1099 841 500 119 588 742 773
1244 1534 1960 3012 3075 2656 2908 3217 3136 3218 2967 3169 3425 3225 2922 2997 2483 2317 2207 2052 1910 1812 1789 1745 1661 1565 1335 1495 1354 1583 1626 1824 1677 1151 1082 752 909 614 382 124 771 58 359
1234 1401 1550 3112 3088 2911 2846 3112 3173 2916 2605 2749 2939 2877 2722 2650 2530 2308 2227 1996 1815 1859 1915 1764 1788 1570 1579 1457 1763 1706 1371 1361 1702 1290 801 424 374 706 822 711 452 581 530
1418 1493 1876 3400 3341 2781 2865 3087 3230 3248 2820 2650 2637 2643 2785 2910 2631 2395 2255 2086 2042 2069 1926 1863 1871 1652 1599 1541 1598 1685 1929 1719 1476 958 952 909 745 849 773 663 447 488 457
1690 1611 2845 3497 3236 3004 2860 3150 3197 3188 3253 3012 2799 2903 2998 2967 2464 2268 2038 1976 2101 1995 1940 1714 1753 1564 1451 1691 1696 1691 1891 1645 1469 854 1016 967 838 1082 1013 743 537 317 477
1960 1864 2529 3572 3530 3430 3488 3416 3143 3258 3042 2845 2836 2988 2973 2752 2799 2635 2540 2295 2057 1985 1816 1533 1533 1658 1561 1810 1822 1843 2009 1615 896 1097 1089 831 941 1555 1042 903 748 458 726
2026 1939 2350 3269 3622 3668 3428 3139 3087 2987 2868 2681 2583 2665 2756 3009 2914 2948 2477 2329 2191 1923 1823 1712 1532 1725 1558 1723 1965 1951 2189 1362 1137 997 878 1043 1221 1570 1181 1000 1012 350 764
2162 2247 2574 2802 3234 3424 3619 3370 3294 3020 2883 2911 2862 3114 3011 3074 2770 2663 2368 2472 2419 2095 1941 1657 1962 1675 1750 1642 2039 1862 1827 1201 846 1133 1060 716 1584 1549 1317 879 1050 654 821
2379 2522 2759 3005 3105 3250 3102 3569 3583 3400 2991 2992 2854 2792 2679 2663 2754 2306 2814 2705 2544 2340 2188 1918 1925 2358 2269 2129 1996 1688 1586 1404 1034 1208 1318 592 1912 1331 1452 922 570 1132 1026
2310 2420 2661 3017 3223 3708 3650 3758 3753 2970 2899 2869 2886 2761 2741 2320 2310 1851 2636 2528 2429 2156 2110 1988 1844 1971 2108 2073 1837 1952 1369 982 1061 1255 994 1444 2137 1417 1601 1505 1287 1255 1026
2096 2499 2601 2946 2858 2897 3165 3526 3607 3088 3075 3091 3189 3154 2609 2343 2624 1940 2470 2525 2245 2199 2202 2042 1790 1875 1824 2341 1367 1542 905 1226 1102 1302 1163 1509 1920 1595 1587 1706 1821 1018 1110
2358 2387 2756 2930 2925 2899 3148 3334 3317 2834 3041 3153 3104 3467 3005 3052 2739 2206 2382 2147 2181 2444 2115 2024 1847 1793 1680 1959 2246 1558 1654 1230 913 1036 1181 1413 1962 1676 1671 1512 1706 929 722
2321 2042 2404 2709 2910 3071 3217 3302 3543 3568 3578 3329 2583 2546 2551 2420 2453 2437 2227 2479 2610 2315 2610 2393 2055 1984 1980 1821 1575 1717 1690 1583 828 922 995 1472 1796 2042 2243 1654 1561 1529 1206
2513 2380 2386 2574 2761 2987 3071 2976 3195 3004 2694 3210 2917 2153 830 273 499 2866 2342 2350 2222 2261 2263 2300 2261 2281 2066 1991 1848 1667 1368 1323 1251 750 743 1549 1837 1893 2218 1877 1402 1506 1396
2530 2449 2460 2332 2668 2856 2895 2966 2951 2774 2689 2280 2151 2372 1350 485 949 2373 2366 2519 2427 2351 2057 2042 1875 1907 2131 1931 1598 1646 1659 1550 1330 947 493 1053 1883 1848 2047 2261 1435 1838 1389
2529 2563 2182 2386 2412 2614 2702 2891 2874 2812 2153 2111 1901 1766 1645 2095 2148 2018 2280 1905 2006 2641 2160 2067 2001 1991 1894 1879 1764 1591 1579 1587 1475 1109 736 872 1123 1405 1670 1314 1506 1551 1830
2660 2428 2304 1958 2161 2409 2516 2393 2146 1887 1797 1703 1831 1672 1700 1601 1593 1793 2177 1476 1630 2096 2197 1858 1888 1591 1457 1480 1695 2144 2069 1611 1609 1443 981 732 1112 926 1187 1680 1256 1264 1107
1223 805 681 1053 1528 1543 1264 1694 1983 1996 1699 1513 1468 1608 1840 1779 1739 1629 1309 1734 1733 1496 1496 1425 1770 1679 1322 1148 1222 1614 1804 1783 1821 1545 1375 917 941 1064 877 1270 1112 1113 946
560 485 396 413 146 1332 1389 1055 1248 1285 1171 831 778 812 859 900 1319 1672 1259 1297 1432 1040 1206 1268 1258 1150 1293 1075 787 887 1769 1300 1799 1518 1470 1049 906 1139 1212 1127 1121 826 1079
215 168 420 389 259 209 851 1534 1771 1853 2048 1707 1786 1424 1125 1294 1427 1562 1403 1329 1132 996 1280 1481 1773 1271 1154 1148 902 787 1196 1172 1291 1490 1476 1063 1157 1177 1300 1317 991 992 944
459 487 107 374 191 26 462 708 1329 1330 1198 1070 842 824 762 711 788 989 1062 1351 1272 1227 1067 1397 1351 1385 965 1136 662 931 735 1025 1085 1249 1343 1413 1434 1400 1288 1353 1287 1402 1313
388 336 335 188 140 25 37 1004 1034 1098 1028 1066 761 577 456 356 528 682 561 792 1422 496 439 605 1337 883 1071 1006 1089 1171 832 310 1107 1215 1577 1499 1492 1620 1461 1658 1575 1341 1490
205 120 93 68 21 34 286 1273 1158 1213 1012 506 273 197 245 164 179 316 691 647 803 701 192 281 1209 1551 1776 938 877 812 554 342 1178 1027 983 1329 1451 1646 1629 1744 1525 1448 1752
508 392 15 0 7 33 658 1449 1075 758 267 169 300 347 450 319 209 240 368 710 988 913 631 149 385 1436 1278 1624 891 771 946 1038 548 301 454 690 908 1106 1273 1632 1477 1536 1635
309 257 9 38 175 1009 1390 721 438 266 360 316 319 254 244 182 235 471 413 607 814 961 1053 1100 978 1110 1148 1149 1086 826 676 849 1318 1118 715 599 401 394 556 886 1170 1040 1042

GFSSE_con_sbcape_021.txt.gz
CAPE
1248 1303 3124 3009 3070 3326 3461 3525 3498 3387 2769 2647 2424 2352 2365 2152 2208 2128 2059 2141 1941 1744 1499 1334 1219 1125 1310 1320 1308 1503 867 1383 1411 1346 1265 1192 1054 944 637 875 1089 547 686
1567 1637 2876 3164 2966 3166 3381 3433 3602 3501 3132 2855 2748 2516 2475 2411 2387 2227 2195 2202 2096 1962 1625 1456 1423 1508 1633 1302 1499 1684 1286 1601 1433 1466 1333 1199 1049 640 275 341 1061 791 366
1330 1517 1643 3187 3274 2894 3136 3574 3824 3750 3286 3031 3007 2634 2603 2499 2489 1952 1936 2112 2176 2040 1829 1811 1533 1609 1627 1552 1517 1389 1392 1542 1499 1275 1437 657 564 238 819 1016 769 844 424
1287 1221 1595 3046 3302 2965 3075 3438 3522 3573 3105 3223 2985 2791 2739 2668 2495 2275 2249 2121 2000 2004 1872 1811 1703 1661 1622 1467 1745 1495 1654 1303 1191 1425 1210 615 115 345 946 200 488 589 728
1347 1410 2079 3197 3148 2868 3039 3403 3517 3477 3165 3088 3003 2848 2682 2566 2413 2357 2273 2040 2082 2061 1890 1990 1772 1646 1360 1657 1754 1678 1308 1056 1112 1323 1233 949 431 473 932 298 697 402 583
1261 1801 2527 3123 2669 2526 2746 2978 3077 3026 3031 2951 2826 2561 2408 2425 2362 2314 2266 2093 1988 2083 1903 1869 2000 1833 1621 1736 1718 1560 1432 1441 1424 1352 945 817 1213 1234 1004 809 285 900 711
1186 2464 1964 3284 3152 2953 2840 2865 2788 2794 2760 2686 2569 2569 2806 2871 2632 2366 2080 2086 2006 1729 1674 1680 1857 1765 1723 1871 1813 1713 1756 1725 1260 1148 1042 845 1165 1563 914 457 568 810 704
1255 2043 1776 3125 3137 2773 2632 2873 2892 2688 2630 2564 2812 2913 2972 2651 2646 2579 2384 2100 1878 1800 1690 1428 1674 1777 1776 1994 1855 1810 1810 1732 1179 710 810 1369 1424 1923 1055 715 468 700 543
1450 1973 1973 2031 2526 2712 2657 2784 2857 2797 2718 2782 2868 2971 2792 2775 2542 2400 2261 2220 1922 1731 1587 1525 1590 1934 1757 2057 1949 2006 1653 1600 1278 855 554 1439 1965 1852 1066 1233 707 1003 898
1957 1971 2275 2324 2299 2319 2480 3003 2820 2827 2572 2519 2451 2439 2525 2349 2245 2502 2130 2308 2028 1827 1750 1635 1630 2080 1839 1817 2277 1832 1694 1792 792 913 839 1254 1936 1718 1410 1264 1125 498 891
1960 1761 2518 2488 2784 2785 2513 2546 2936 2789 2790 2790 2671 2601 2360 1830 2273 2561 2052 1891 1996 1869 1755 1633 1706 1722 2071 1775 1813 1840 1582 691 499 668 725 1628 2014 1559 1440 1397 1429 799 969
1547 1459 2103 2297 2668 2567 3019 3269 2298 2283 2344 2445 2399 2502 2482 2595 2415 1690 2308 2233 1946 1958 1848 1677 1560 1523 1163 921 1331 1626 884 469 890 774 1100 1479 1875 1509 1556 1659 1579 1757 1112
1922 1772 1949 2351 2694 2753 2765 3225 2903 3423 3320 2104 2240 2636 2276 2288 2331 1853 2640 1996 1528 1632 1193 1526 1336 1079 1042 542 1243 1151 846 644 1148 1613 1127 1850 1898 1455 1595 1637 1771 1295 1374
1933 2068 2083 2941 2299 2503 2541 2263 3238 2419 2466 2738 3196 2698 2854 2421 2383 2015 1555 1590 1920 2901 1687 1434 1360 1250 1615 1482 1750 1181 1198 1131 745 698 1288 1947 1861 1956 1510 1825 1496 1285 1093
1492 1623 2238 2949 2641 2736 2749 2437 2564 2939 1556 2476 2074 1903 1151 1338 1877 634 158 158 814 1601 1644 1591 1175 1687 1773 1696 1597 1509 1318 1144 1077 823 887 2174 2003 1746 1899 1878 1728 1317 970
1493 1651 2009 2275 2652 2498 2938 2678 3549 2308 1782 1633 1891 1671 1847 1361 1402 671 345 151 358 971 1512 669 1556 2042 1177 1426 1699 1400 1609 1862 1450 1327 813 1117 2194 1795 1771 1757 1857 1434 657
1711 1881 2268 2595 2460 2733 2433 2282 2190 1542 1262 2062 1588 2575 1916 2018 1622 1297 866 751 314 303 178 189 713 1717 1669 1915 1296 1755 1327 1829 1689 1444 1532 1362 1420 1886 1928 1807 2147 1895 1493
1994 2142 2296 1863 2291 2493 2918 2189 1635 1649 1564 2108 2099 2625 2044 2356 2239 2026 1590 1191 812 101 0 32 1207 920 1724 1675 1956 1709 1652 1461 1434 1736 2192 1412 812 840 1714 1701 1700 1768 281
2370 2644 2606 2110 1948 2924 2346 1941 1862 1702 1793 1362 965 1295 2126 1941 1648 1883 1289 1499 1495 716 689 1759 1403 1489 1528 1231 1297 1719 1691 1831 1266 1264 1548 1558 1492 1444 1195 1462 1133 1123 404
2779 3000 2437 1591 1943 2861 2620 2341 1628 1254 2012 1657 1766 2000 2193 2136 1861 2532 2432 1604 3073 2000 1325 1484 1669 1535 983 814 475 881 1779 1346 1387 1310 1521 2125 2251 1613 1362 2227 1650 569 798
3024 2977 2491 2224 1827 1482 1237 1733 1914 1271 2238 2017 2223 1688 1774 1912 1784 2364 2600 2464 2518 2281 2146 2581 2020 2213 1033 963 1571 931 622 848 1618 1554 1399 1249 1812 1700 1187 2382 1589 1461 823
2804 2396 2171 1862 905 784 1657 1606 2080 1745 1909 2165 2540 1920 2026 1680 1552 1817 2302 2099 2331 2233 2354 2381 2293 2191 1949 2213 1049 612 388 135 658 1333 1404 2353 1731 2391 1667 2008 1790 1721 1068
2518 2034 2055 1169 855 339 911 1720 2815 2304 2314 2576 1947 981 915 988 922 1262 1298 1966 1918 2487 2407 1777 1970 1571 1740 2103 1681 652 235 86 107 1916 2087 1462 1919 2804 2047 2164 1396 1894 1776
2228 2162 1771 1797 1082 571 478 474 1777 2340 1759 1137 746 813 1063 888 661 872 1115 874 1736 2260 1875 1929 2178 1583 1807 1722 1937 1109 1625 994 660 573 2104 2200 2572 2441 2354 1238 755 1064 2123
1387 1411 1595 1455 1048 1263 1455 2043 2252 2448 610 582 631 819 1636 1751 917 969 738 771 1061 1872 1926 1619 1884 2129 1974 1883 1595 1998 1536 465 786 750 1043 867 1477 1287 2037 1549 1208 1537 1916
1606 1230 1304 1551 1460 1487 1495 1862 1995 1038 842 766 909 716 416 370 800 972 900 1012 1526 1271 1303 1996 1859 1616 1885 844 1395 1718 1761 1079 545 814 1435 997 322 725 988 699 1434 1556 1672

GFSSE_con_sbcape_027.txt.gz
CAPE
1188 2190 3092 3310 3642 3723 3565 3510 3068 2754 2356 2392 2610 2644 2740 2628 2689 2689 2851 2671 2182 1891 1821 1256 1153 1442 1406 1503 904 1025 1257 1185 1265 1230 1113 905 791 791 843 876 583 535 759
1267 2075 3068 3254 3621 3673 3556 3430 3272 3113 2579 2585 2757 2545 2553 2640 2266 2289 2748 2695 1939 1744 1598 1442 1366 1492 1495 1620 1110 1613 1420 1392 1485 1267 920 717 606 704 605 709 245 174 438
1247 2059 2561 3343 3647 3684 3524 3472 3371 3182 2666 2684 2931 2709 2550 2631 2291 1934 1918 1875 2028 1810 1698 1682 1647 1767 1560 1620 1532 1644 1516 1469 1601 1332 853 145 718 908 1138 419 444 268 516
1125 1761 2687 3324 3564 3676 3543 3444 3393 3164 2669 2904 2934 2751 2774 2560 2422 1985 2176 2288 2127 2051 2029 1817 1845 1815 1733 1707 1597 1447 1537 1532 1294 923 376 40 632 1222 1137 769 300 343 382
1017 1998 2813 3502 3546 3528 3653 3603 3544 3438 3314 3049 2901 2681 2652 2493 2319 2134 2122 2123 2093 1974 2009 1943 1943 1896 1712 1785 1689 1878 1495 1703 875 509 339 31 229 476 569 894 517 583 534
1716 2392 3200 3435 3129 3261 3797 3766 3674 3554 3508 3393 3176 2849 2672 2466 2409 2334 2105 2089 2134 2017 2077 1984 1841 1620 1654 1767 1847 1841 1742 1380 1153 648 412 516 230 631 559 265 776 802 342
1729 2188 2717 3418 3455 3463 3612 3657 3570 3547 3486 3266 2864 2605 2449 2641 2411 2470 2188 2009 1867 1867 1675 2043 1887 1752 1637 1750 1705 2236 1506 1341 856 758 433 126 628 1231 752 1138 1041 765 309
1557 1825 2161 2998 3233 3146 2952 2991 3026 2917 2788 2647 2472 2535 2502 2403 2700 2675 2192 1998 1779 1731 1483 1807 1818 1682 1662 1801 1665 2298 1571 1206 857 598 774 538 1089 1685 1032 999 875 689 498
1452 1470 2016 2287 2213 2493 2725 2602 2638 2567 2502 2540 2766 3169 3067 2715 2486 2466 2779 2453 1893 1692 1344 1464 1818 1724 1888 2055 1737 1933 1797 1409 751 698 913 527 1336 1767 814 721 730 531 866
1294 1450 1549 1828 1882 2055 2463 3109 3013 2967 2343 2518 2860 2695 2525 2481 2453 2421 2731 2613 2000 1784 1521 1426 1660 2011 2199 1966 1998 1946 1720 1468 778 565 510 686 1477 1825 905 545 691 719 422
1276 1294 1477 1632 1704 1689 1966 2404 3196 2550 2337 2367 2358 2610 2681 1768 2060 2079 2391 2302 1955 1841 1800 1745 1460 2325 2109 1895 1922 1917 1886 971 534 542 537 1248 1895 2201 1251 937 1402 1016 684
1443 1386 1610 1583 1631 1877 2137 2130 2290 2045 1891 1810 1889 1741 1782 1530 1408 1768 1752 2328 2003 1663 1722 2061 2546 1925 1701 1190 1335 1411 1121 851 241 408 374 1561 1950 2362 2279 1857 1559 1231 784
1673 1578 1806 1858 1889 2028 2243 2029 1990 1835 1846 2084 2003 2111 1931 1818 1253 1278 1242 1816 1637 1907 1345 2049 1912 1515 1056 537 642 1154 1098 626 285 493 115 724 1651 2526 2036 2013 2063 1063 1068
1677 1924 1814 2116 1945 1699 1806 1619 1663 1458 1615 1277 1063 1336 921 944 691 1052 1015 1161 1223 1212 1135 656 227 6 0 42 213 831 818 521 405 716 427 405 1569 2293 2151 2130 2115 1701 1439
1669 1813 2000 2269 1928 1975 1693 943 353 91 673 563 206 791 997 889 993 1024 96 104 74 893 387 28 0 0 0 0 0 40 592 647 512 605 492 1598 1405 1459 2500 2211 1816 1284 1696
1624 1926 2242 2268 2045 1822 1214 698 256 219 410 223 36 0 415 1052 859 1084 186 136 106 365 45 0 0 0 0 0 6 0 3 377 451 433 630 899 1818 1518 2048 2310 1883 1824 1238
1821 2155 2255 2266 2203 1794 1491 1079 647 325 62 67 0 0 1 768 1051 1147 793 326 200 275 289 73 0 0 0 0 0 18 80 526 727 883 481 640 1141 1574 1629 1805 2227 2370 2003
2022 2255 2228 2389 2451 2000 1525 1023 984 976 342 111 0 244 357 1229 1178 1204 845 581 200 160 15 0 0 0 0 0 7 16 25 343 918 1089 922 599 841 775 1546 1777 1654 2120 2218
2124 2451 2052 2021 2075 1251 825 755 754 957 911 1165 1038 467 609 611 838 966 1007 969 550 286 23 0 0 0 0 5 7 15 178 448 671 1150 1026 1174 744 901 606 982 1473 1430 1773
2726 2365 2035 1747 762 732 668 477 412 331 875 290 347 11 77 11 73 219 830 977 505 325 69 0 0 0 1 165 548 599 302 30 293 678 1040 1113 867 801 924 634 790 909 1760
2871 2454 1767 1622 507 246 125 82 4 105 610 698 163 22 0 0 0 0 786 555 436 363 380 216 166 173 78 144 201 10 336 312 511 642 841 969 1076 937 918 826 482 515 673
2735 2782 2369 1429 643 145 16 47 126 589 702 1223 1176 466 220 120 14 440 714 588 448 204 123 283 264 74 37 84 11 0 9 27 431 748 558 849 938 994 1021 1067 774 436 283
2686 2703 1799 1306 1026 456 213 730 323 475 713 606 561 758 869 732 734 553 284 259 268 175 233 196 158 85 142 131 131 77 51 41 63 260 582 789 676 976 1118 1317 839 499 310
2628 2553 1794 1352 992 889 755 524 1046 632 667 512 698 565 565 615 682 329 247 386 386 294 280 323 282 124 98 112 157 305 324 319 39 89 161 440 502 863 1077 787 754 494 324
2418 2289 1435 1311 1222 831 333 604 900 1006 917 837 474 588 526 319 257 257 351 468 390 415 372 356 302 181 84 129 88 152 152 267 270 72 44 100 627 827 845 869 926 351 332
2039 2408 1585 1529 1101 1139 1280 1401 1577 1078 844 769 520 428 288 351 281 397 533 494 427 358 223 399 250 242 88 190 149 178 152 100 82 192 69 35 54 112 241 475 385 52 108

GFSSE_con_sbcape_030.txt.gz
CAPE
1504 2303 3237 3352 3291 3090 2766 2451 2327 2463 2429 2751 2940 2775 2658 2696 2815 3081 3003 2809 2394 2399 1852 1371 1613 1504 1596 1240 1054 1288 1463 1369 1307 1037 1120 1147 1049 874 1108 713 571 565 823
1653 2400 3205 3671 3762 3612 3086 2870 2542 2623 2551 2677 2790 2625 2501 2438 2467 2464 2740 2489 2056 2010 1740 1563 1646 1708 1728 1185 1269 1307 1340 1457 1398 1262 1209 900 935 815 658 564 594 531 585
1776 2334 3030 3520 3691 3483 3263 3098 2800 2678 2611 2672 2683 2672 2480 2610 2326 2316 2309 2234 2069 1975 1819 1829 1807 1811 1715 1557 1646 1517 1564 1447 1524 1295 928 444 588 856 390 148 186 732 274
1931 2310 2803 3420 3579 3595 3519 3338 3171 2803 2650 2734 2701 2644 2452 2404 2260 2090 2315 2427 2213 2143 2030 1876 1932 1923 1685 1822 1580 1640 1595 1546 1170 788 207 496 595 999 468 700 130 902 733
2043 2352 2756 3659 3652 3192 3286 3413 3324 3184 2762 2630 2596 2674 2560 2283 2244 2235 2323 2231 2206 2109 2126 1996 1923 1790 1949 1785 1651 1737 1576 1194 1256 638 159 177 595 1048 693 352 269 316 481
2072 2468 3308 3576 3369 3187 3225 3409 3250 3160 3094 2947 2635 2686 2567 2515 2459 2262 2253 2214 2191 2155 2127 1992 1967 1782 1530 1772 1954 1640 1600 1166 1013 282 243 388 90 608 755 531 676 668 897
2087 2507 2870 3440 3610 3600 3525 3304 3150 3121 3023 2804 2733 2618 2485 2644 2536 2280 2101 2138 2058 1890 2092 1987 1762 1637 1513 1822 2025 1826 1540 1221 694 674 396 234 26 1131 488 903 901 391 496
1884 2410 2709 3254 3464 3494 3223 2980 3002 2870 2780 2685 2541 2360 2406 2408 2244 2347 2286 2017 1815 1862 1918 2124 1809 1829 1579 1588 1761 1723 1592 918 977 524 240 296 609 1660 949 1120 1017 448 524
1816 2038 2397 2559 2519 2835 2801 2826 2783 2684 2584 2430 2422 2692 2576 2498 2399 2302 2363 2342 2000 1794 1072 1884 1903 1901 1886 1998 1789 1698 1356 960 479 507 361 436 1207 1431 1229 1182 985 596 462
1498 1868 1938 1802 1870 2154 2333 2779 2754 2719 2338 2228 2378 2643 2571 2513 2512 2501 2958 2792 2048 1985 1663 1530 2003 1921 2024 2182 2053 1934 1627 1112 529 388 617 364 1490 1565 1183 950 798 901 703
1429 1506 1631 1647 1727 1865 2155 2165 2875 2321 2226 2582 2713 2508 2767 1846 2066 2246 2496 2297 1973 1812 1744 1679 1707 2248 2076 2018 2112 2012 1770 1008 565 355 376 1216 1669 1978 1061 903 1064 588 555
1201 1313 1481 1461 1503 1663 2185 1968 2197 1788 1795 1772 1873 1774 1642 1519 1464 1862 2037 1724 2111 1944 1889 1956 1953 1955 1915 1259 1196 1707 1230 753 310 408 315 1033 1360 2295 1641 1527 1753 993 731
1130 1247 1331 1375 1344 1570 1957 1777 1778 1632 1597 1579 1539 1382 1445 1614 1274 1284 1304 1332 1343 1793 1343 1955 1917 1624 1157 956 825 997 803 802 227 371 226 1181 1452 2117 1867 1715 1615 1332 969
1389 1338 1488 1491 1608 1727 1829 1781 1788 1688 1581 1637 1498 1318 1389 1121 219 636 1068 930 931 991 1174 1073 1196 374 144 304 223 452 626 513 301 439 386 1012 1390 1923 2359 1998 1634 1106 1367
1586 1653 1636 1719 1673 1581 1650 1209 1166 789 1091 1098 753 1068 762 317 378 707 618 614 878 838 760 191 257 233 31 15 108 94 194 367 316 406 521 803 1300 1413 2267 2162 1816 1365 1112
1578 1674 1694 1886 1564 1509 1441 623 145 0 207 376 79 190 589 601 491 544 126 70 6 367 161 75 58 44 19 0 27 22 18 52 338 318 521 473 1457 1597 1708 2346 2438 2015 1506
1460 1714 2100 1756 1565 1374 783 543 355 48 92 114 68 20 0 43 626 550 180 51 0 4 154 0 0 0 0 0 0 0 21 92 473 602 336 520 630 1648 1521 1747 2449 2306 1807
1677 1920 1977 2229 1363 1096 837 808 922 771 232 115 67 16 22 14 631 704 507 300 151 76 81 40 22 0 0 0 0 0 79 87 249 496 593 574 607 718 1210 1727 1804 1751 2276
1900 1873 1959 2138 1283 964 611 519 397 563 462 527 103 8 147 445 957 789 782 674 267 201 38 0 0 0 0 0 0 1 10 172 373 607 821 638 505 819 635 1199 1620 1408 1731
1931 1727 1545 1061 791 468 282 303 321 130 319 445 243 139 95 5 93 121 362 342 98 175 42 0 0 0 0 0 266 536 184 184 197 215 573 635 694 581 711 599 672 835 1471
1965 1766 1073 605 436 204 0 8 38 80 158 432 235 44 0 0 0 0 16 383 216 110 64 6 0 0 0 1 67 0 0 108 127 59 134 446 693 530 541 736 367 453 580
1948 1499 829 449 194 5 0 2 2 76 312 750 447 251 179 83 18 16 268 305 192 119 13 0 11 19 44 48 1 0 0 1 43 202 215 416 660 590 734 726 735 527 356
2321 1510 973 521 189 20 1 237 269 258 336 223 178 363 389 478 414 299 69 33 9 21 36 8 0 0 1 6 3 0 0 1 10 46 239 314 590 389 506 528 559 709 388
2243 1659 1176 871 396 105 238 207 614 354 522 215 338 147 110 80 65 81 78 83 69 35 40 30 32 14 0 1 6 79 29 24 33 37 31 155 378 426 475 355 462 479 422
2355 1709 1184 884 820 803 301 125 137 578 526 261 115 44 43 0 83 134 179 93 16 12 53 16 19 28 0 3 0 10 40 44 46 51 51 41 123 282 359 346 411 453 232
2148 1503 1186 946 855 590 320 433 958 527 318 260 57 69 25 34 4 17 71 68 33 42 5 3 33 46 4 0 3 27 47 33 49 86 34 40 8 13 31 13 113 89 13

GFSSE_con_sbcape_033.txt.gz
CAPE
1574 2246 3102 2809 2569 2521 2332 2175 2099 2146 2326 2773 3125 3078 2843 2709 2569 2796 2701 2316 1904 1903 1569 1619 1503 1496 1418 1450 1536 1442 1021 944 1088 691 463 952 756 517 636 881 875 483 840
1766 2586 3373 3150 3126 2656 2507 2392 2361 2307 2226 2509 2767 2814 2687 2852 2402 2430 2404 2177 2040 1874 1682 1679 1708 1652 1431 1252 1123 1162 751 1241 1303 1019 857 810 1081 907 652 632 915 536 867
1977 2510 3116 3387 3508 2801 2626 2426 2449 2411 2226 2296 2490 2606 2588 2702 2407 2291 2262 2120 2024 1909 1857 1812 1890 1693 1547 1319 1253 1153 1205 1071 1268 1260 1020 510 514 569 479 586 758 468 456
2096 2504 2666 3131 3570 3116 2728 2533 2526 2548 2472 2451 2446 2358 2422 2480 2352 2334 2416 2379 2197 2105 1929 2012 1791 1795 1587 1634 1526 1563 1252 1179 1332 1112 518 471 516 542 171 149 666 281 259
2085 2471 2732 3709 3570 2811 2745 2856 2690 2629 2582 2536 2534 2367 2237 2311 2417 2521 2529 2358 2264 2362 2151 2080 1812 1658 1708 1709 1578 1629 1545 1397 946 603 146 367 484 528 739 140 859 776 900
2170 2407 3434 3680 3096 2770 2637 2822 2664 2621 2588 2489 2543 2511 2343 2303 2287 2300 2264 2183 2114 2173 2215 2177 1912 1473 1515 1930 1771 1664 1291 1279 937 292 88 773 540 760 482 280 265 456 498
2215 2663 3048 3550 3496 3195 2839 2691 2729 2634 2578 2548 2574 2498 2442 2505 2397 2296 2194 2220 2179 1916 2111 1984 1889 1565 1517 2010 1982 1538 1100 1193 409 368 244 413 190 1304 576 516 461 1048 614
2367 2555 2830 3356 3404 3021 2822 2714 2624 2606 2571 2652 2588 2419 2587 2742 2441 2376 2175 2004 2003 1888 1997 1872 1838 1660 1560 1995 2083 1701 1312 1306 1089 668 299 176 201 1259 766 1175 719 428 426
2369 2550 2616 2724 2607 2849 2805 2751 2712 2749 2657 2501 2365 2367 2442 2423 2336 2403 2245 2019 1914 1875 1594 1901 1869 1528 1881 1722 1928 1477 1104 1040 574 430 266 237 1096 1316 838 978 1000 514 586
2137 2363 2375 2427 2267 2406 2529 3021 2882 2764 2463 2286 2445 2731 2551 2470 2230 2207 2587 2492 1953 1695 1270 1491 1831 1827 1645 2196 1910 1561 1184 749 314 470 264 309 1451 1281 1253 1285 1172 472 485
1882 1948 1926 1769 1986 1952 2158 2382 2882 2520 2352 2120 2331 2556 2502 1953 2093 2352 2412 2206 1947 1852 1717 1597 1619 1788 1789 1778 2107 1977 1452 791 517 368 435 766 1325 1334 1266 1102 1304 929 702
1562 1621 1650 1663 1736 1800 2188 1853 2027 1711 1615 1903 2215 1867 1847 1563 1608 1925 2332 2256 1988 1961 1797 1796 1759 1833 1986 1071 1068 1787 1165 755 444 251 281 981 1305 1388 1907 1685 1416 829 974
1307 1385 1479 1521 1455 1678 2021 1665 1688 1521 1532 1535 1577 1434 1392 1332 1185 1602 1574 1436 1331 2172 1291 1641 1731 1671 1273 994 796 836 664 680 342 261 434 926 1329 1394 1583 1650 1325 1019 745
1148 1133 1249 1303 1312 1402 1552 1718 1603 1548 1546 1317 1416 1314 1286 1299 957 578 916 944 803 993 1047 986 1223 1190 781 662 477 378 597 493 345 206 262 774 1488 1541 1628 1580 1407 1406 1154
1152 1161 1304 1301 1335 1474 1579 1666 1547 1664 1335 1148 845 941 864 661 271 125 571 675 767 692 768 616 625 579 167 128 199 189 347 359 310 260 368 978 1865 1650 1364 1597 1872 1317 1225
1372 1347 1476 1476 1459 1424 1326 1265 1174 736 666 543 474 571 618 242 102 238 292 155 170 186 324 267 135 104 82 0 5 36 33 35 111 334 323 413 1707 1648 1504 1581 1932 1942 1334
1612 1549 1619 1669 1487 1404 1307 589 344 109 41 112 198 100 56 61 204 398 213 57 35 52 189 101 19 0 0 0 0 0 0 0 26 250 309 369 519 1687 1553 1722 1921 2208 2426
1509 1644 1652 1971 1538 882 880 574 495 385 140 53 87 44 20 0 0 228 429 164 68 27 39 45 0 0 0 0 0 0 0 0 15 100 385 429 456 533 1191 1699 1359 1392 2282
1450 1668 1891 1436 1222 1203 801 386 339 509 255 389 168 34 6 61 172 135 299 305 100 81 27 6 0 0 0 0 0 0 0 0 41 155 282 441 460 557 456 852 1538 1261 1675
1635 1695 1766 1083 1101 763 340 211 164 174 283 353 271 188 159 134 328 334 227 257 167 101 32 1 0 0 0 0 0 54 5 0 9 132 236 472 483 464 575 538 529 676 1260
1654 1536 1350 909 512 239 65 72 42 89 114 265 235 68 2 0 0 0 0 74 76 51 41 0 0 0 0 0 0 0 0 0 78 95 93 212 369 560 484 513 431 377 451
1598 1169 718 541 281 81 2 1 1 60 241 468 458 298 80 54 0 0 1 114 23 9 0 0 1 1 0 0 0 0 2 0 0 42 71 116 203 361 362 428 474 436 367
1487 975 667 419 188 10 15 330 197 174 244 153 156 158 118 213 164 113 59 35 2 0 0 0 0 1 0 1 0 0 0 0 1 1 122 189 291 329 391 465 445 454 426
1564 987 480 379 128 18 249 335 372 238 294 165 127 36 24 55 83 97 81 53 4 0 0 0 0 0 0 0 1 0 1 0 0 16 6 29 107 204 239 202 272 281 362
1599 1234 793 548 209 287 306 116 215 437 338 87 20 22 14 0 0 33 41 19 0 0 0 0 0 1 0 0 0 0 0 20 41 21 20 13 10 27 42 124 203 228 287
1460 1151 858 690 613 531 213 453 638 343 256 108 77 57 0 0 0 0 0 0 0 0 0 0 0 0 0 0 0 0 0 9 28 19 12 17 6 9 0 13 11 107 35

GFSSE_con_sbcape_036.txt.gz
CAPE
1361 1993 2906 2827 2304 2160 2083 2141 2405 2643 2810 2929 2955 2946 2774 2627 2498 2358 2312 2309 2025 1765 1675 1626 1462 1657 1670 1571 1381 1283 1178 1092 861 564 662 1035 979 391 400 782 413 227 702
1477 2247 3048 3096 2636 2246 2254 2261 2205 2561 2601 2867 3047 2943 2851 2691 2603 2365 2287 2069 1985 1831 1850 1731 1578 1796 1527 1558 1450 1124 1050 1069 583 515 724 759 397 751 830 783 775 588 631
1972 2396 2776 3225 3045 2379 2278 2309 2171 2352 2151 2360 2827 2888 2889 3053 2708 2195 2244 2073 2023 1889 1776 1959 1775 1752 1477 1176 1089 971 1327 1108 1576 939 997 803 857 594 353 818 759 818 699
2097 2512 2606 3238 3267 2706 2419 2408 2371 2164 2142 2245 2379 2517 2607 2571 2379 2249 2211 2033 1942 1758 1943 1858 1780 1886 1459 1604 1351 1402 1333 1411 1317 1203 801 567 308 397 440 712 496 435 400
2308 2401 2526 3506 3327 2669 2490 2688 2646 2522 2271 2269 2235 2315 2446 2361 2348 2487 2373 2324 2215 2168 2035 2042 1510 1806 1735 1834 1807 1330 1228 1319 1192 789 419 585 794 297 135 849 343 269 217
2343 2416 3219 3490 2793 2667 2587 2566 2519 2503 2512 2360 2212 2120 2266 2400 2509 2492 2252 2164 2134 2248 2258 1988 1822 1559 1772 1741 1689 1517 1453 1306 1035 298 443 921 507 819 169 993 973 969 403
2255 2685 2921 3445 3327 2973 2591 2576 2573 2522 2429 2371 2340 2272 2223 2285 2269 2309 2146 2174 2101 2192 2129 2125 1824 1341 1600 1929 1353 1344 1202 1240 419 416 411 942 699 1138 358 298 408 587 317
2396 2681 2866 3218 3232 2733 2627 2547 2533 2492 2417 2377 2391 2311 2391 2423 2332 2262 2095 2020 2094 1787 2051 1798 1767 1392 1622 1827 1048 1232 1183 1038 855 561 500 538 455 1217 543 471 904 950 324
2429 2563 2661 2656 2568 2686 2640 2392 2442 2434 2415 2534 2366 2215 2588 2619 2356 2433 2307 1943 1879 1823 1715 1766 1710 1654 1477 1978 1710 1461 1192 923 902 680 431 390 656 1019 800 1015 567 469 504
2281 2460 2392 2470 2269 2334 2343 2832 2592 2695 2560 2337 2132 2164 2332 2345 2281 2258 2593 2414 1981 1649 1060 1442 1611 1615 1928 1859 1904 1239 937 1104 604 541 490 400 836 867 795 1084 958 532 517
2055 2101 2120 2047 1961 2087 2244 2504 3045 2606 2376 2037 2065 2493 2312 1927 1980 2239 2270 2065 1965 1866 1632 1473 1505 1668 1619 2120 1835 1357 966 966 584 483 567 498 1169 1187 1187 1528 1150 604 513
1567 1729 1693 1707 1856 1817 2195 1998 2094 1811 1673 1517 1988 1920 1779 1590 1591 2224 2481 2036 1921 1838 1768 1712 1627 1654 1733 1203 1528 1850 1407 852 710 444 601 754 1274 883 1316 1332 1455 1075 783
1470 1623 1589 1521 1512 1593 1975 1482 1636 1342 1278 1497 1839 1635 1477 1383 1229 1373 1108 1369 1425 1971 1557 1873 1936 1774 1325 1129 1066 1041 1172 876 557 369 554 963 1383 1151 1097 1712 1407 966 995
1209 1346 1315 1317 1292 1246 1417 1422 1545 1270 1262 1415 1226 1231 1020 926 997 916 790 1087 808 1232 1127 1140 1394 1459 1307 988 859 741 767 707 643 362 443 978 1243 1442 1521 1495 1485 1018 849
1039 1042 1033 1162 1131 1142 1207 1258 1212 1089 1131 1130 1131 1043 884 796 779 195 264 686 796 688 869 933 1058 1068 793 631 585 430 389 655 614 466 454 738 1306 1430 1849 1305 875 1149 1245
966 927 894 1055 1029 1143 995 858 769 815 854 742 638 751 784 266 158 145 249 263 287 421 611 635 460 537 514 217 125 227 191 202 284 451 455 755 1409 1383 1537 1601 1220 1564 1422
1024 905 1056 1041 1153 695 1021 968 748 182 132 175 251 220 171 281 228 237 264 188 118 30 200 219 141 87 117 41 29 0 19 25 26 110 378 544 644 1178 1578 1431 1452 1840 1804
1213 1117 1274 1362 958 1196 977 642 361 171 111 17 15 83 92 35 0 0 165 266 72 44 10 46 36 32 20 0 0 0 0 0 0 31 205 582 663 552 1189 1667 1376 1377 1420
1270 1269 1451 1246 1293 1032 883 586 368 331 232 252 120 58 46 59 96 56 142 244 311 226 139 72 37 25 1 0 0 0 0 0 0 4 158 327 542 852 697 918 1373 1276 1495
1119 1319 1557 988 994 614 324 194 58 118 210 223 138 59 115 128 330 294 307 309 180 180 138 32 12 1 1 0 0 2 0 0 0 31 85 279 585 690 904 861 1090 955 1434
1295 1315 1153 875 362 267 47 17 2 69 90 253 135 48 10 0 0 0 0 0 104 106 101 16 1 2 2 1 0 0 0 16 79 154 190 257 458 815 834 1105 1105 1073 1043
1206 1233 802 380 169 62 0 0 4 75 128 223 85 260 156 117 16 0 0 45 43 41 22 3 2 3 2 2 0 0 39 20 1 61 148 232 268 437 777 823 882 835 877
1068 932 564 380 104 4 6 129 121 91 130 124 60 74 62 88 75 34 18 9 0 0 0 0 1 3 1 5 0 22 0 22 5 2 82 165 332 380 515 631 742 830 787
781 668 424 196 21 9 172 183 189 236 231 110 56 0 3 5 7 7 6 18 12 0 0 0 0 2 2 2 17 3 2 0 0 0 38 7 199 199 256 421 597 629 662
0 335 293 155 35 47 144 346 360 311 157 49 0 14 0 0 0 0 0 0 0 0 0 0 1 8 3 2 3 5 31 94 121 114 43 24 56 59 35 35 419 544 613
3 466 551 213 68 114 120 356 417 261 104 87 37 1 0 0 0 0 0 0 1 1 11 0 0 2 5 2 1 0 1 90 128 33 9 15 3 61 64 103 154 151 68

GFSSE_con_sbcape_042.txt.gz
CAPE
1133 1638 3006 2662 2365 2593 2683 3018 3177 3228 2900 2739 2821 2575 2550 2435 2335 2445 2471 1304 1807 2104 1805 1670 1510 1427 1479 1411 1338 1389 1296 1143 891 808 972 745 865 772 546 579 346 128 290
1233 1502 2941 2994 2688 2644 2746 3036 3171 3073 3003 2948 2768 2540 2362 2372 2281 2176 2384 1560 1440 1674 1687 1633 1775 1834 1694 1666 1466 1320 1086 804 666 1217 1222 386 687 734 354 335 642 457 257
1314 1691 2174 3028 2880 2616 2398 2845 2847 2721 2340 3180 3029 2535 2253 2259 2059 1847 1928 1894 780 346 1475 1772 1958 1812 1919 1614 1273 1341 903 745 737 1057 552 642 464 1038 873 553 716 942 699
1338 1629 1957 3029 3119 2628 2661 2609 2726 2589 2391 2747 2893 2578 2258 2355 1863 1743 1825 1832 1207 1182 918 1539 1927 1667 1491 1429 1118 1459 903 1139 1104 965 722 31 212 882 788 888 877 947 330
1415 1652 2689 3072 2955 2604 2525 2608 2772 2607 2329 2326 2340 2277 2161 2038 2025 2071 1929 1762 1376 1602 732 851 1878 1603 1416 1197 1574 1416 1352 1293 1198 1106 912 207 26 773 816 994 1018 498 27
1541 1715 2651 3272 2736 2631 2524 2428 2476 2441 2472 2356 2243 2233 2261 2253 2238 2133 2207 1965 1715 1634 1835 1295 1421 1608 1868 1579 1451 1543 1529 1493 1239 244 643 388 415 402 546 348 85 49 679
1812 1947 2345 3368 3196 2723 2616 2517 2440 2423 2356 2323 2328 2356 2320 2298 2305 1943 2174 2095 2069 1748 1798 1958 1296 1072 1934 1799 1436 1394 1440 1296 603 207 181 97 529 371 635 495 309 120 604
1781 1946 2261 2882 3122 2753 2645 2706 2597 2486 2362 2226 2168 2314 2390 2388 2074 2208 2082 2060 1925 1845 1667 1951 1889 1358 1590 1764 1705 1534 1447 1023 486 387 488 273 956 714 277 827 824 714 477
1936 2132 2493 2398 2865 2786 2432 2637 2654 2466 2283 2390 2214 2216 2262 2317 2356 2209 2061 1922 1888 1700 1627 1551 1596 1668 1725 1928 1596 1523 1420 1120 856 690 691 481 885 658 539 359 699 651 276
2192 2277 2254 2535 2591 2594 2508 2614 2540 1980 2169 2386 2252 2252 2374 2372 2205 2174 2117 1986 1852 1622 1430 1561 1643 1455 2123 2395 1409 1082 977 982 995 777 972 953 1453 994 783 670 878 966 579
2328 2298 2412 2459 2373 2519 2354 2580 2610 2371 2324 2315 2357 1985 2199 1917 1777 1894 1823 1720 1891 1628 1191 1407 1545 1602 1790 1852 1444 1176 1212 1075 961 811 1638 1463 1369 652 979 1017 961 731 471
2211 2249 2425 2410 2353 2473 1970 2306 2140 2184 2241 1757 1514 1881 1811 1438 1488 1392 1614 1668 1794 1857 1751 1586 1504 1559 1544 1089 1229 1229 991 763 884 1349 1617 1514 1059 686 990 1769 1301 1131 717
2126 2238 2434 2410 2288 2193 1831 1890 2749 1911 1889 2085 2099 1995 2458 1986 1802 1434 2078 1910 2007 1992 1700 1381 1484 1217 867 1444 1032 825 462 641 690 835 1029 1348 1224 957 917 1760 1676 1253 999
2104 2255 2325 2388 2277 2217 2051 1776 1790 1445 1570 2245 2128 2177 2717 3622 2149 1919 2242 1574 2474 2940 1985 1534 999 1128 1355 1167 1026 1115 937 681 426 340 964 1384 1389 1367 1046 1146 1641 1722 1520
2237 2399 2506 2549 2522 2405 2454 2359 2716 2212 1313 1361 1884 720 1313 1830 1402 1386 1711 1304 1897 2727 2038 2007 1839 1435 1408 1407 1301 1169 1020 955 825 617 417 1240 1349 1756 1402 1412 1591 1636 1844
2334 2390 2176 2384 2579 2500 2658 2396 1434 975 808 648 671 537 437 819 1029 1127 830 844 955 2065 2888 3053 2058 1433 1218 1195 1388 1416 1353 1119 999 931 826 915 1683 1846 1735 1506 2169 1761 1414
2570 2462 2459 1390 2121 2549 2119 1587 1772 803 502 521 276 382 668 612 1064 1571 2359 1778 966 1337 1880 2364 1867 1788 1482 1259 1151 1204 1238 1243 1091 1164 1303 974 1217 1433 1761 2040 2088 1912 1554
2925 2788 1251 491 516 1015 1902 1792 2139 1442 860 844 310 234 296 1117 1475 1548 1118 1525 1273 2620 3047 2824 1532 2408 1880 1563 1759 1470 1073 1006 945 1018 1147 1154 916 898 1363 1949 1865 1777 1557
2801 2694 853 619 981 1065 1167 2050 1169 995 645 866 297 497 235 1195 1436 2251 2149 1606 1706 1186 1587 1228 1097 1379 1560 1348 955 1027 1020 1013 780 542 662 1094 1168 986 1149 1885 1787 1684 1670
2389 1263 109 186 714 841 1668 2336 1515 725 279 40 1034 842 648 1826 1808 1883 1904 1207 1401 1958 2369 2033 1527 1378 1021 892 892 635 774 912 735 382 374 711 1017 973 855 1115 1518 1299 1755
1050 0 0 0 1611 1612 1834 1846 1243 219 212 458 150 346 1119 937 845 1805 2018 1539 1477 1466 1241 1357 1289 1147 1569 979 1099 618 630 928 960 625 478 218 240 310 552 1119 2864 1521 1286
815 979 885 898 2635 2850 2205 1333 904 172 392 292 380 632 1296 434 1224 1301 1229 1176 1337 1516 1494 1274 1326 1538 1101 1215 817 660 713 775 705 831 736 686 713 412 736 1593 1992 1877 1837
1278 1740 1676 2142 2664 2269 1122 949 696 708 455 371 691 1194 1370 1035 956 1025 1063 1169 1315 1247 513 1080 1112 1155 619 613 813 775 980 322 1230 782 975 796 862 813 858 1074 1428 1570 1687
1674 1702 1541 1818 2308 1517 1385 1120 899 609 607 1350 1103 1756 1075 976 823 705 819 804 944 781 958 990 995 1157 1081 931 662 740 914 1257 1240 1214 1170 1080 1002 857 1124 1409 1385 1561 1611
1027 1984 2138 2266 1702 1422 1536 1350 1535 1229 1724 1183 1175 1349 1229 798 460 368 585 662 935 1457 1194 1145 1174 1114 1033 1002 995 594 716 1065 1344 1322 1118 629 804 449 376 661 1038 1708 1403
898 1844 2161 2095 1485 1542 1432 1867 1872 1692 1593 1325 1255 718 245 149 149 384 549 381 552 1105 1128 1156 1213 1032 813 771 591 512 1008 954 838 1541 1388 1120 887 217 98 211 510 946 644

GFSSE_con_sbcape_048.txt.gz
CAPE
966 1643 2823 2928 2932 3075 3059 3083 2743 2633 2320 2341 2377 2643 2556 2327 1370 1831 1835 1947 1947 1917 1838 1507 1366 1133 1366 1354 1377 1179 1108 659 910 820 996 848 1078 962 784 552 708 317 181
935 1533 2863 3002 3089 3165 3113 3087 3008 2795 2582 2489 2534 2423 2477 2160 1750 1267 1530 1915 1850 1776 1636 1589 1654 1634 1652 1690 1520 1174 834 956 1153 636 1345 586 360 573 682 678 1113 609 405
1033 1635 1978 3049 3070 2902 3179 3331 3047 2710 2505 2331 2390 2261 2278 1919 1749 1400 1409 402 653 952 1644 1645 1590 1593 1736 1710 1171 783 521 1162 1204 865 1093 198 180 557 789 759 355 236 261
1019 1329 1845 3159 3115 2924 3114 3071 3091 2846 2509 2471 2497 2080 2131 2247 1766 1702 1663 507 350 664 1417 1561 1612 1720 1673 1220 1204 1022 829 899 1102 1160 697 433 141 849 879 1057 620 656 672
1298 1193 2254 3315 3084 2680 2792 2994 3017 2980 2827 2643 2425 2262 2119 1851 1444 1442 1484 1497 1211 1392 482 1327 1381 1336 1496 1233 1451 1027 1183 1206 1067 945 801 550 234 914 1017 1115 483 25 355
1667 1312 2729 3087 2718 2680 2608 2926 2783 2483 2920 2733 2363 1996 1831 1709 1563 1564 1504 1308 1089 1358 1010 958 1143 1341 1143 1533 1423 1368 1430 1332 1123 1037 499 1250 588 1313 1098 633 357 707 294
1901 1522 2267 3090 2718 2457 2416 2469 2445 2527 2431 2313 2273 2143 1951 1902 1838 1778 1731 1541 1370 1275 1453 1485 1192 1385 1493 1773 1497 1586 1568 1457 1131 1273 583 397 1101 1434 445 286 149 715 809
2112 1819 1975 2872 2692 2337 2218 2215 2201 2168 2166 2147 2102 2098 2048 1988 1916 1731 1752 1531 1590 1487 1368 1585 1166 1270 1822 1756 1281 1736 1716 1611 1139 843 509 541 1116 1581 615 252 495 328 668
2054 2316 2360 2121 2477 2391 2272 2219 2222 2141 2085 2150 2253 2371 2101 2024 1650 1665 1615 1624 1505 1383 1429 1358 1637 1286 1367 1713 1418 1517 1712 1284 934 1087 555 530 1257 1557 1183 1058 916 341 769
2444 2350 2209 2661 2295 2306 1823 2598 2457 2441 2156 2092 1979 2173 1986 1667 1600 1841 1992 2041 1606 1226 1221 1284 1331 1604 1799 2025 1947 1786 1659 1492 644 797 704 591 1606 1035 733 781 717 709 437
2287 2478 2450 2676 3157 2919 2505 2306 2944 2171 1926 2308 2059 1971 2147 1931 1555 1511 1634 1979 1471 1379 1030 1294 1360 1720 1641 1722 1910 1643 1277 572 294 697 867 1389 1538 1413 670 949 1222 1364 458
1960 2396 2533 2313 2508 2632 1736 2620 2176 2010 1686 2078 2155 2172 1583 665 888 591 1314 1543 1346 1487 1330 1191 1356 1660 1402 1213 1683 1498 944 653 668 735 1133 1621 1828 1846 1620 1678 1566 1462 763
1836 2270 2613 2762 2504 2284 2510 2151 1929 1970 1398 1452 1503 1967 1214 947 203 877 924 1377 1596 1649 1389 1490 1339 1138 1128 964 1205 1130 810 752 704 956 1031 1894 1961 1819 1524 1944 1967 1422 1103
1690 1832 1960 2852 2911 2899 1656 1096 2434 1309 339 30 1277 1947 1308 1102 1418 1033 1583 1850 1548 1987 1510 462 33 369 837 1224 1420 889 1146 789 531 512 1401 2106 1999 1865 1837 2026 2262 1889 1544
1948 2149 2533 2967 3498 3156 2652 2083 2473 1557 410 435 896 2250 2152 1725 1792 1802 927 1013 1058 1792 1649 618 0 0 632 1582 1557 1159 1061 786 1183 1239 1705 1941 1599 1874 1851 1879 2021 1814 1917
69 90 193 2499 2862 2437 2087 1982 1602 1710 1745 1040 944 1111 1382 1348 1263 1105 232 334 466 1343 762 902 712 467 845 1952 1969 1336 1016 1201 1196 1287 1271 1295 1738 1721 2036 2315 2313 2271 2048
0 0 76 213 1873 2054 2264 1553 1902 1533 1409 599 437 627 1486 1142 867 689 235 414 489 72 3 90 808 1346 1257 1744 1975 922 1771 1674 1419 1490 987 1209 1365 2114 2335 2266 2408 2176 2125
0 0 0 92 1603 1546 2253 2556 2455 2015 1126 754 607 769 540 748 770 492 338 1081 341 178 7 0 699 1130 1681 1501 1570 1746 765 1167 1684 1224 1510 1351 1318 1011 1692 2078 1973 2038 2090
67 1 0 495 1312 1352 1685 1964 2015 561 487 589 771 340 113 121 336 442 1208 1330 1639 930 258 91 1962 1562 1879 1806 1506 843 706 1603 1939 1144 1171 946 1356 1196 1312 1473 1392 1186 1660
66 115 194 1605 745 608 1658 1946 438 171 37 79 237 206 183 491 524 1085 1378 1683 2137 1968 1494 1036 1570 1286 1095 1304 1440 1092 1380 1410 1433 1145 979 892 693 1169 1419 1018 775 675 1139
729 1837 863 548 332 1312 2263 2217 346 200 63 19 111 86 184 331 761 1060 777 1390 1502 1835 1457 1472 1254 1177 1692 1312 1197 1059 1050 1315 1275 1175 944 768 365 1032 659 515 1058 1097 1217
1340 1178 1437 761 2038 2624 2999 2955 1376 321 152 138 34 126 178 464 719 1578 1260 806 663 1329 1289 1395 1419 1622 1584 1535 973 955 737 866 999 746 395 685 426 775 781 866 610 527 203
1384 1253 992 1511 2382 3250 2773 1798 1445 1270 166 166 139 338 438 739 700 641 978 1283 1391 1622 1377 1753 1971 1582 1417 1699 1537 1005 809 767 768 810 388 302 681 577 1007 818 559 70 78
1744 1545 2376 2742 2730 3253 3103 1894 2144 2016 1710 1347 1817 1238 1022 1407 1243 1266 1379 1275 1152 1671 1855 1542 1665 1599 1472 1188 1402 878 676 691 778 402 226 495 393 625 716 773 764 181 3
1527 2023 1882 2972 3099 2778 2962 2988 2407 2445 2448 1863 1998 1713 1770 811 839 709 847 1342 1565 1693 1877 1970 2179 1925 1662 1083 1252 1020 756 598 734 810 384 527 73 69 105 200 91 565 39
1805 1982 1613 3056 3299 3115 2798 3073 2743 2773 2604 1909 1636 1611 1398 1503 749 1300 845 993 1185 1387 1630 1774 1330 1259 1538 1434 1162 1188 950 799 769 811 606 298 5 7 3 10 7 27 37